Location: Unspecified
(0.0000°N, 0.0000°E)
Time: 18:56:55
(UTC+00:00)

Courier 1B - Pass Details

Date: 25 November 2019
Orbit: 963 x 1209 km, 28.3° (Epoch: 08 December)

Event Time Altitude Azimuth Distance (km) Brightness Sun altitude
Rises 21:50:05 0° 228° (SW) 4,042 11.3 -54.6°
Reaches altitude 10° 21:53:02 10° 222° (SW) 3,103 10.5 -55.2°
Enters shadow 21:53:19 11° 221° (SW) 3,013 10.4 -55.3°
